Tracking 35331 objects as of 16-Sep-2026
HD Live streaming from Space Station
objects crossing your sky now

STARLINK-38189

Track STARLINK-38189 now!
10-day predictions
STARLINK-38189 is classified as:


NORAD ID: 100213
Int'l Code: 2026-177A
Launch date: August 4, 2026
Source: United States (US)
Launch site: AIR FORCE WESTERN TEST RANGE (AFWTR)
Your satellite tracking list
Your tracking list is empty




NASA's NSSDC Master Catalog

Two Line Element Set (TLE):
1 A0213U 26177A   26258.59430468  .00050044  00000-0  91534-3 0  9999
2 A0213  97.2832 309.3830 0001398  96.3700 263.7711 15.49208571  6602
Source of the keplerian elements: AFSPC